Location: Aldenham
(51.6667°N, 0.3500°W)
Time: 06:03:26
(UTC+00:00)

A-11 Canister half - Pass Details

Date: 21 February 2026
Orbit: 1512 x 1687 km, 47.2° (Epoch: 5 March)

Event Time Altitude Azimuth Distance (km) Brightness Sun altitude
Rises 17:17:34 0° 164° (SSE) 4,925 11.7 0.6°
Maximum altitude 17:26:22 10° 121° (ESE) 3,948 10.8 -0.7°
Drops below altitude 10° 17:26:25 10° 120° (ESE) 3,948 10.8 -0.7°
Enters shadow 17:34:04 - 82° (E) 4,720 10.9 -1.9°
Sets 17:35:06 0° 78° (ENE) 4,916 - -2.0°
